Location: Spring Creek
(38.2870°N, 100.2160°W)
Time: 08:28:21
(UTC+00:00)

N. Korean satellite - Visible Passes

Search period start: 29 January 2022 00:00
Search period end: 08 February 2022 00:00
Orbit: 447 x 490 km, 97.3° (Epoch: 28 January)

Date Brightness Start Highest point End Pass type
(mag) Time Alt. Az. Time Alt. Az. Time Alt. Az.
29 Jan 6.6 12:11:07 10° N 12:14:39 52° WNW 12:14:57 50° W visible
30 Jan 7.1 11:41:51 10° NNE 11:45:26 58° E 11:45:58 51° SE visible
31 Jan 8.9 11:13:08 10° NE 11:16:05 23° E 11:17:04 21° ESE visible
31 Jan 8.0 12:46:26 10° NNW 12:49:02 19° WNW 12:51:09 12° WSW visible
01 Feb 6.8 12:16:28 10° N 12:19:56 43° WNW 12:23:21 10° SSW visible
02 Feb 6.7 11:47:04 10° NNE 11:50:42 70° E 11:54:15 10° S visible
03 Feb 8.7 11:18:12 10° NE 11:21:19 27° E 11:24:24 10° SSE visible
03 Feb 8.1 12:51:54 10° NNW 12:54:13 16° WNW 12:56:30 10° WSW visible
04 Feb 9.9 10:50:33 10° ENE 10:51:48 11° E 10:53:03 10° ESE visible
04 Feb 7.0 12:21:44 10° N 12:25:06 37° WNW 12:28:24 10° SW visible
05 Feb 6.5 11:52:13 10° NNE 11:55:50 84° ESE 11:59:23 10° S visible
06 Feb 8.4 11:23:11 10° NNE 11:26:26 31° E 11:29:37 10° SSE visible
06 Feb 8.3 12:57:18 10° NW 12:59:15 14° WNW 13:01:11 10° W visible
07 Feb 9.8 10:55:07 10° ENE 10:56:54 13° E 10:58:41 10° ESE visible
07 Feb 7.2 12:26:53 10° N 12:30:07 31° WNW 12:33:17 10° SW visible
